THY6950 LTFM-LTBU

Flight info

Callsign THY6950
Flight time 0h 21m
Altitude 17000
Route IST1G/17R IST DCT BKZ
Aircraft B738/M-SDE2E3FGHIRWXY/LB1

Departure

Time 2026-04-24 20:27
Airport İstanbul Airport (LTFM)

Arrival

Time 2026-04-24 20:48
Airport Tekirdağ Çorlu Airport (LTBU)
Time Latitude Longitude Altitude Speed Heading
2026-04-24 20:06 41.25158 28.73262 333 ft 0 kts 89°
2026-04-24 20:11 41.25158 28.73245 329 ft 4 kts 88°
2026-04-24 20:11 41.25157 28.73209 330 ft 4 kts 87°
2026-04-24 20:11 41.25155 28.73175 329 ft 3 kts 79°
2026-04-24 20:11 41.25150 28.73155 330 ft 2 kts 45°
2026-04-24 20:12 41.25140 28.73148 329 ft 2 kts
2026-04-24 20:12 41.25129 28.73147 331 ft 2 kts 359°
2026-04-24 20:12 41.25130 28.73147 331 ft 2 kts 359°
2026-04-24 20:12 41.25132 28.73147 329 ft 0 kts 359°
2026-04-24 20:15 41.25135 28.73147 329 ft 2 kts 359°
2026-04-24 20:15 41.25165 28.73146 330 ft 7 kts 359°
2026-04-24 20:15 41.25237 28.73145 332 ft 13 kts 359°
2026-04-24 20:16 41.25350 28.73142 329 ft 19 kts 359°
2026-04-24 20:16 41.25498 28.73138 333 ft 23 kts 359°
2026-04-24 20:16 41.25671 28.73134 331 ft 24 kts 359°
2026-04-24 20:16 41.25837 28.73130 329 ft 26 kts 359°
2026-04-24 20:17 41.26033 28.73126 333 ft 29 kts 359°
2026-04-24 20:17 41.26459 28.73116 330 ft 31 kts 359°
2026-04-24 20:17 41.26672 28.73111 331 ft 31 kts 359°
2026-04-24 20:18 41.26824 28.73107 331 ft 34 kts 359°
2026-04-24 20:18 41.27151 28.73100 329 ft 36 kts 359°
2026-04-24 20:18 41.27392 28.73095 332 ft 32 kts 359°
2026-04-24 20:18 41.27555 28.73089 333 ft 16 kts 351°
2026-04-24 20:19 41.27575 28.73083 331 ft 0 kts 342°
2026-04-24 20:19 41.27576 28.73082 331 ft 0 kts 341°
2026-04-24 20:19 41.27583 28.73076 332 ft 2 kts 323°
2026-04-24 20:19 41.27592 28.73040 329 ft 7 kts 284°
2026-04-24 20:20 41.27625 28.72966 331 ft 12 kts 334°
2026-04-24 20:20 41.27715 28.72969 333 ft 16 kts
2026-04-24 20:20 41.27846 28.72967 333 ft 21 kts 359°
2026-04-24 20:20 41.27998 28.72963 333 ft 22 kts 359°
2026-04-24 20:21 41.28153 28.72960 330 ft 23 kts 359°
2026-04-24 20:21 41.28322 28.72956 332 ft 25 kts 359°
2026-04-24 20:21 41.28440 28.72953 332 ft 26 kts 359°
2026-04-24 20:21 41.28633 28.72949 330 ft 29 kts 359°
2026-04-24 20:22 41.28839 28.72944 331 ft 31 kts 359°
2026-04-24 20:22 41.29059 28.72938 332 ft 32 kts 359°
2026-04-24 20:22 41.29287 28.72933 330 ft 34 kts 359°
2026-04-24 20:22 41.29446 28.72930 333 ft 6 kts 359°
2026-04-24 20:23 41.29492 28.72917 331 ft 8 kts 331°
2026-04-24 20:23 41.29500 28.72849 331 ft 9 kts 264°
2026-04-24 20:23 41.29493 28.72754 333 ft 11 kts 265°
2026-04-24 20:23 41.29489 28.72655 333 ft 10 kts 269°
2026-04-24 20:24 41.29489 28.72615 333 ft 0 kts 269°
2026-04-24 20:24 41.29489 28.72604 333 ft 3 kts 269°
2026-04-24 20:25 41.29488 28.72578 333 ft 7 kts 269°
2026-04-24 20:25 41.29484 28.72483 333 ft 8 kts 252°
2026-04-24 20:25 41.29443 28.72452 333 ft 0 kts 181°
2026-04-24 20:26 41.29439 28.72452 333 ft 3 kts 180°
2026-04-24 20:26 41.29204 28.72455 332 ft 72 kts 179°
2026-04-24 20:26 41.28449 28.72472 332 ft 141 kts 179°
2026-04-24 20:27 41.27270 28.72487 562 ft 181 kts 181°
2026-04-24 20:27 41.26035 28.72433 1664 ft 170 kts 181°
2026-04-24 20:27 41.24861 28.72458 2515 ft 174 kts 178°
2026-04-24 20:27 41.23554 28.72532 2896 ft 202 kts 178°
2026-04-24 20:28 41.22085 28.72366 3097 ft 227 kts 203°
2026-04-24 20:28 41.20903 28.70928 3487 ft 244 kts 242°
2026-04-24 20:28 41.20491 28.68563 3959 ft 261 kts 265°
2026-04-24 20:28 41.20359 28.66186 4704 ft 266 kts 267°
2026-04-24 20:29 41.20276 28.64551 5272 ft 268 kts 267°
2026-04-24 20:29 41.20094 28.61210 6378 ft 272 kts 267°
2026-04-24 20:29 41.19945 28.58706 7140 ft 275 kts 267°
2026-04-24 20:29 41.19782 28.56156 7912 ft 278 kts 267°
2026-04-24 20:30 41.19605 28.53516 8694 ft 282 kts 267°
2026-04-24 20:30 41.19423 28.50890 9477 ft 286 kts 267°
2026-04-24 20:30 41.19235 28.48250 10201 ft 290 kts 267°
2026-04-24 20:30 41.19039 28.45512 10489 ft 310 kts 267°
2026-04-24 20:31 41.18900 28.43580 10605 ft 325 kts 266°
2026-04-24 20:31 41.18595 28.39399 10824 ft 354 kts 266°
2026-04-24 20:31 41.18432 28.37205 11007 ft 364 kts 266°
2026-04-24 20:31 41.18088 28.32627 11758 ft 372 kts 266°
2026-04-24 20:32 41.17916 28.30354 11984 ft 372 kts 266°
2026-04-24 20:32 41.17637 28.26671 12014 ft 391 kts 266°
2026-04-24 20:32 41.17362 28.23055 12015 ft 399 kts 266°
2026-04-24 20:32 41.17079 28.19352 12003 ft 400 kts 266°
2026-04-24 20:33 41.16795 28.15659 12010 ft 399 kts 266°
2026-04-24 20:33 41.16516 28.12033 12013 ft 397 kts 266°
2026-04-24 20:33 41.16237 28.08442 12001 ft 379 kts 266°
2026-04-24 20:33 41.15974 28.05047 11937 ft 365 kts 266°
2026-04-24 20:34 41.15689 28.01398 11788 ft 342 kts 266°
2026-04-24 20:34 41.15472 27.98629 11671 ft 325 kts 266°
2026-04-24 20:34 41.15349 27.95728 11535 ft 305 kts 279°
2026-04-24 20:34 41.15980 27.93033 11451 ft 284 kts 300°
2026-04-24 20:35 41.17064 27.91067 11232 ft 275 kts 316°
2026-04-24 20:35 41.18448 27.89342 11011 ft 270 kts 320°
2026-04-24 20:35 41.19865 27.87686 10707 ft 269 kts 320°
2026-04-24 20:35 41.21264 27.86018 10421 ft 269 kts 315°
2026-04-24 20:36 41.22180 27.83903 10236 ft 272 kts 288°
2026-04-24 20:36 41.22264 27.81364 9923 ft 282 kts 259°
2026-04-24 20:36 41.21358 27.78808 9544 ft 288 kts 233°
2026-04-24 20:36 41.20139 27.76943 9227 ft 289 kts 229°
2026-04-24 20:37 41.18772 27.74998 8868 ft 290 kts 228°
2026-04-24 20:37 41.17384 27.73033 8509 ft 290 kts 228°
2026-04-24 20:37 41.16004 27.71063 8161 ft 290 kts 229°
2026-04-24 20:37 41.14639 27.69091 7811 ft 290 kts 229°
2026-04-24 20:38 41.13216 27.67026 7448 ft 290 kts 229°
2026-04-24 20:38 41.11864 27.65059 7108 ft 290 kts 229°
2026-04-24 20:38 41.10508 27.63088 6763 ft 290 kts 229°
2026-04-24 20:38 41.09140 27.61100 6393 ft 287 kts 228°
2026-04-24 20:39 41.07566 27.59512 5996 ft 282 kts 203°
2026-04-24 20:39 41.05677 27.59037 5669 ft 277 kts 176°
2026-04-24 20:39 41.03820 27.59663 5337 ft 276 kts 153°
2026-04-24 20:39 41.02264 27.61160 5004 ft 273 kts 137°
2026-04-24 20:40 41.00862 27.62847 4663 ft 273 kts 137°
2026-04-24 20:40 40.99607 27.64716 4287 ft 273 kts 116°
2026-04-24 20:40 40.99260 27.67182 3965 ft 270 kts 82°
2026-04-24 20:40 40.99905 27.69487 3697 ft 267 kts 63°
2026-04-24 20:41 41.00850 27.71603 3334 ft 269 kts 57°
2026-04-24 20:41 41.01952 27.73601 3065 ft 266 kts 50°
2026-04-24 20:41 41.03170 27.75434 3018 ft 255 kts 49°
2026-04-24 20:41 41.04300 27.77142 3000 ft 242 kts 50°
2026-04-24 20:42 41.05379 27.78808 2842 ft 237 kts 50°
2026-04-24 20:42 41.06447 27.80465 2581 ft 235 kts 50°
2026-04-24 20:42 41.07495 27.82088 2264 ft 231 kts 50°
2026-04-24 20:42 41.08524 27.83679 2011 ft 223 kts 50°
2026-04-24 20:43 41.09536 27.85245 1658 ft 220 kts 50°
2026-04-24 20:43 41.10682 27.86461 1624 ft 201 kts 24°
2026-04-24 20:43 41.11940 27.87128 1868 ft 196 kts 20°
2026-04-24 20:43 41.13199 27.87752 2021 ft 187 kts 20°
2026-04-24 20:44 41.14340 27.88311 2033 ft 168 kts 20°
2026-04-24 20:44 41.15055 27.88660 2013 ft 162 kts 20°
2026-04-24 20:44 41.16134 27.89190 2024 ft 162 kts 22°
2026-04-24 20:44 41.17003 27.90164 2045 ft 159 kts 52°
2026-04-24 20:45 41.17731 27.91311 2037 ft 164 kts 50°
2026-04-24 20:45 41.18476 27.92454 2033 ft 164 kts 50°
2026-04-24 20:45 41.19217 27.93590 2029 ft 163 kts 50°
2026-04-24 20:45 41.19963 27.94748 2021 ft 162 kts 55°
2026-04-24 20:46 41.20248 27.96143 2020 ft 155 kts 102°
2026-04-24 20:46 41.19724 27.97384 1933 ft 153 kts 143°
2026-04-24 20:46 41.18763 27.97801 1974 ft 145 kts 184°
2026-04-24 20:46 41.17763 27.97475 1855 ft 153 kts 201°
2026-04-24 20:47 41.16886 27.96685 1571 ft 154 kts 227°
2026-04-24 20:47 41.16215 27.95556 1077 ft 156 kts 232°
2026-04-24 20:47 41.15540 27.94498 791 ft 147 kts 228°
2026-04-24 20:47 41.14874 27.93489 635 ft 144 kts 229°
2026-04-24 20:48 41.14212 27.92480 544 ft 142 kts 229°
2026-04-24 20:48 41.13632 27.91593 532 ft 108 kts 229°
2026-04-24 20:48 41.13241 27.90996 526 ft 49 kts 229°
2026-04-24 20:48 41.13108 27.90794 523 ft 23 kts 229°
2026-04-24 20:49 41.13004 27.90635 521 ft 21 kts 229°
2026-04-24 20:49 41.12933 27.90591 519 ft 11 kts 169°
2026-04-24 20:49 41.12871 27.90649 523 ft 11 kts 139°
2026-04-24 20:49 41.12821 27.90723 524 ft 10 kts 114°
2026-04-24 20:50 41.12790 27.90801 524 ft 8 kts 137°
2026-04-24 20:50 41.12759 27.90838 524 ft 0 kts 139°